GOGOG EGBM-EGBM

Flight info

Callsign GOGOG
Flight time N/A
Altitude 3000
Route EGBM
Aircraft VL3/L-SDFGYR/S

Departure

Time 2026-04-27 15:53
Airport Tatenhill Airfield (EGBM)

Arrival

Time N/A
Airport Tatenhill Airfield (EGBM)
Time Latitude Longitude Altitude Speed Heading
2026-04-27 15:47 52.81636 -1.75744 438 ft 0 kts 26°
2026-04-27 15:50 52.81637 -1.75741 440 ft 1 kts 62°
2026-04-27 15:50 52.81627 -1.75674 436 ft 12 kts 115°
2026-04-27 15:50 52.81568 -1.75587 439 ft 11 kts 219°
2026-04-27 15:50 52.81557 -1.75631 440 ft 0 kts 250°
2026-04-27 15:51 52.81556 -1.75636 440 ft 0 kts 251°
2026-04-27 15:52 52.81550 -1.75672 433 ft 16 kts 254°
2026-04-27 15:52 52.81465 -1.76150 492 ft 63 kts 259°
2026-04-27 15:52 52.81319 -1.76832 752 ft 68 kts 259°
2026-04-27 15:52 52.81175 -1.77675 853 ft 84 kts 262°
2026-04-27 15:53 52.81056 -1.78651 1002 ft 82 kts 255°
2026-04-27 15:53 52.80738 -1.79427 993 ft 83 kts 231°
2026-04-27 15:53 52.80329 -1.80124 1030 ft 86 kts 230°
2026-04-27 15:53 52.79906 -1.80836 1093 ft 88 kts 221°
2026-04-27 15:54 52.79299 -1.80922 1084 ft 94 kts 159°
2026-04-27 15:54 52.78688 -1.80488 1125 ft 97 kts 152°
2026-04-27 15:54 52.78083 -1.79958 1201 ft 100 kts 151°
2026-04-27 15:54 52.77458 -1.79405 1269 ft 101 kts 152°
2026-04-27 15:55 52.76757 -1.79264 1338 ft 106 kts 195°
2026-04-27 15:55 52.76283 -1.79472 1361 ft 107 kts 196°
2026-04-27 15:55 52.75294 -1.79335 1476 ft 115 kts 162°
2026-04-27 15:55 52.74544 -1.78910 1461 ft 109 kts 161°
2026-04-27 15:56 52.73840 -1.78468 1431 ft 112 kts 160°
2026-04-27 15:56 52.73126 -1.77987 1404 ft 111 kts 160°
2026-04-27 15:56 52.72392 -1.77488 1391 ft 114 kts 162°
2026-04-27 15:56 52.71773 -1.76678 1375 ft 114 kts 122°
2026-04-27 15:57 52.71351 -1.75598 1286 ft 108 kts 121°
2026-04-27 15:57 52.70961 -1.74618 1302 ft 107 kts 122°
2026-04-27 15:57 52.70523 -1.73554 1323 ft 118 kts 123°
2026-04-27 15:57 52.70064 -1.72491 1273 ft 109 kts 123°
2026-04-27 15:58 52.69620 -1.71520 1186 ft 106 kts 130°
2026-04-27 15:58 52.69096 -1.70680 1157 ft 104 kts 139°
2026-04-27 15:58 52.68480 -1.69967 987 ft 112 kts 147°
2026-04-27 15:58 52.67796 -1.69414 984 ft 106 kts 159°
2026-04-27 15:59 52.67104 -1.69277 1184 ft 100 kts 181°
2026-04-27 15:59 52.66493 -1.69123 1523 ft 103 kts 163°
2026-04-27 15:59 52.66017 -1.68175 1326 ft 105 kts 120°
2026-04-27 15:59 52.65394 -1.67981 1225 ft 102 kts 204°
2026-04-27 16:00 52.64655 -1.68287 1121 ft 112 kts 193°
2026-04-27 16:00 52.64194 -1.68040 1094 ft 111 kts 134°
2026-04-27 16:00 52.64085 -1.66438 1008 ft 112 kts 78°
2026-04-27 16:00 52.64095 -1.65156 1006 ft 114 kts 91°
2026-04-27 16:01 52.63686 -1.64028 1023 ft 119 kts 139°
2026-04-27 16:01 52.62932 -1.63509 1055 ft 117 kts 168°
2026-04-27 16:01 52.62169 -1.63203 1111 ft 111 kts 167°
2026-04-27 16:01 52.61412 -1.62907 1045 ft 113 kts 173°
2026-04-27 16:02 52.60754 -1.62313 1160 ft 112 kts 129°
2026-04-27 16:02 52.60281 -1.61282 1167 ft 115 kts 125°
2026-04-27 16:02 52.59737 -1.60335 1263 ft 105 kts 144°
2026-04-27 16:02 52.59132 -1.59507 1200 ft 120 kts 132°
2026-04-27 16:03 52.58608 -1.58481 1215 ft 114 kts 112°
2026-04-27 16:03 52.58653 -1.57314 1168 ft 105 kts 52°
2026-04-27 16:03 52.58982 -1.56246 1192 ft 107 kts 69°
2026-04-27 16:03 52.59026 -1.55016 1119 ft 111 kts 91°
2026-04-27 16:04 52.58770 -1.53851 1083 ft 108 kts 108°
2026-04-27 16:04 52.58407 -1.52766 785 ft 106 kts 112°
2026-04-27 16:04 52.58061 -1.51758 747 ft 99 kts 111°
2026-04-27 16:04 52.57714 -1.50744 726 ft 109 kts 113°
2026-04-27 16:05 52.57412 -1.49676 841 ft 96 kts 86°
2026-04-27 16:05 52.57411 -1.48539 922 ft 107 kts 96°
2026-04-27 16:05 52.56996 -1.47488 971 ft 115 kts 127°
2026-04-27 16:05 52.56752 -1.46314 987 ft 109 kts 98°
2026-04-27 16:06 52.56498 -1.45143 1079 ft 110 kts 115°
2026-04-27 16:06 52.56027 -1.44119 1094 ft 117 kts 124°
2026-04-27 16:06 52.55466 -1.43146 1112 ft 119 kts 143°
2026-04-27 16:06 52.54722 -1.42475 1067 ft 125 kts 155°
2026-04-27 16:07 52.53953 -1.41935 1125 ft 118 kts 154°
2026-04-27 16:07 52.53152 -1.41562 1100 ft 123 kts 166°
2026-04-27 16:07 52.52290 -1.41219 917 ft 127 kts 159°
2026-04-27 16:07 52.51584 -1.40574 770 ft 114 kts 135°
2026-04-27 16:08 52.50927 -1.39915 714 ft 114 kts 158°
2026-04-27 16:08 52.50140 -1.39656 768 ft 119 kts 150°
2026-04-27 16:08 52.49582 -1.38752 750 ft 122 kts 141°
2026-04-27 16:08 52.48852 -1.38077 783 ft 116 kts 148°
2026-04-27 16:09 52.48122 -1.37522 1011 ft 113 kts 151°
2026-04-27 16:09 52.46790 -1.36604 1210 ft 72 kts 159°
2026-04-27 16:09 52.46124 -1.36347 1212 ft 115 kts 178°
2026-04-27 16:10 52.44646 -1.36525 1373 ft 111 kts 141°
2026-04-27 16:10 52.43978 -1.36732 1611 ft 87 kts 93°
2026-04-27 16:11 52.43571 -1.37010 1337 ft 94 kts 268°
2026-04-27 16:11 52.42576 -1.38303 655 ft 101 kts 171°
2026-04-27 16:12 52.41343 -1.37222 747 ft 108 kts 172°
2026-04-27 16:12 52.40577 -1.37406 738 ft 110 kts 192°
2026-04-27 16:12 52.39252 -1.36791 625 ft 100 kts 170°
2026-04-27 16:13 52.38662 -1.36993 657 ft 94 kts 233°
2026-04-27 16:13 52.37470 -1.38112 599 ft 100 kts 213°
2026-04-27 16:13 52.36909 -1.38722 624 ft 93 kts 217°
2026-04-27 16:14 52.35584 -1.39142 791 ft 103 kts 181°
2026-04-27 16:14 52.34215 -1.39781 814 ft 109 kts 221°
2026-04-27 16:15 52.33180 -1.41522 671 ft 100 kts 227°
2026-04-27 16:15 52.31856 -1.42195 586 ft 106 kts 197°
2026-04-27 16:16 52.30445 -1.42930 507 ft 111 kts 194°
2026-04-27 16:16 52.29211 -1.44238 815 ft 109 kts 224°
2026-04-27 16:17 52.28200 -1.46071 906 ft 113 kts 216°
2026-04-27 16:17 52.26976 -1.47782 830 ft 108 kts 199°
2026-04-27 16:18 52.25639 -1.49109 872 ft 117 kts 210°
2026-04-27 16:18 52.24227 -1.50389 1010 ft 119 kts 214°
2026-04-27 16:19 52.23559 -1.51151 1184 ft 114 kts 223°
2026-04-27 16:19 52.22940 -1.51968 1259 ft 113 kts 230°
2026-04-27 16:20 52.21033 -1.53533 1151 ft 77 kts 192°
2026-04-27 16:20 52.20449 -1.53748 1077 ft 100 kts 197°
2026-04-27 16:20 52.19044 -1.54413 1100 ft 103 kts 190°
2026-04-27 16:21 52.18413 -1.54823 1117 ft 100 kts 233°
2026-04-27 16:21 52.16583 -1.56681 764 ft 124 kts 219°
2026-04-27 16:22 52.15997 -1.57519 893 ft 98 kts 234°
2026-04-27 16:22 52.15822 -1.59447 1002 ft 83 kts 291°
2026-04-27 16:22 52.16046 -1.60303 1010 ft 82 kts 312°
2026-04-27 16:23 52.16446 -1.60906 948 ft 75 kts 339°
2026-04-27 16:23 52.17316 -1.61254 694 ft 57 kts
2026-04-27 16:23 52.17679 -1.61286 526 ft 47 kts
2026-04-27 16:24 52.18005 -1.61315 436 ft 51 kts 358°
2026-04-27 16:24 52.18712 -1.61392 201 ft 50 kts 358°
2026-04-27 16:25 52.19221 -1.61449 166 ft 21 kts
2026-04-27 16:25 52.19423 -1.61595 164 ft 20 kts 283°
2026-04-27 16:26 52.19221 -1.61808 165 ft 16 kts 93°